FW6253 Weather Reports


time (UTC)temp
C
wind
direction
speed
KPH
gust
KPH
rain 1hr
cm
rain 24hr
cm
rain mn
cm
humidity
%
barometer
mb
20260506222553 24 355 6.4 19.3 0.00 0.00 0.00 72 1009.6
20260506222048 25 345 6.4 17.7 0.00 0.00 0.00 71 1009.5
20260506221558 25 45 4.8 17.7 0.00 0.00 0.00 72 1009.4
20260506221052 25 10 4.8 24.1 0.00 0.00 0.00 71 1009.4
20260506220553 25 52 4.8 24.1 0.00 0.00 0.00 73 1009.4
20260506220053 25 51 4.8 24.1 0.00 0.00 0.00 73 1009.2
20260506215557 25 32 6.4 17.7 0.00 0.00 0.00 73 1009.3
20260506215053 25 26 4.8 16.1 0.00 0.00 0.00 73 1009.4
20260506214551 25 331 4.8 16.1 0.00 0.00 0.00 72 1009.4
20260506214053 25 206 4.8 20.9 0.00 0.00 0.00 73 1009.4
20260506213552 26 82 6.4 20.9 0.00 0.00 0.00 72 1009.5
20260506213053 26 50 4.8 20.9 0.00 0.00 0.00 75 1009.4
20260506212555 25 24 6.4 19.3 0.00 0.00 0.00 74 1009.3
20260506212051 26 34 4.8 20.9 0.00 0.00 0.00 75 1009.2
20260506211555 26 38 4.8 20.9 0.00 0.00 0.00 74 1009.2
20260506211053 26 48 6.4 20.9 0.00 0.00 0.00 74 1009.2
20260506210553 26 352 3.2 14.5 0.00 0.00 0.00 76 1009.1
20260506210100 25 55 4.8 20.9 0.00 0.00 0.00 76 1009.2
20260506205553 25 42 6.4 20.9 0.00 0.00 0.00 76 1009.3
20260506205054 26 19 6.4 19.3 0.00 0.00 0.00 73 1009.3
20260506204554 27 38 3.2 14.5 0.00 0.00 0.00 73 1009.5
20260506204053 28 64 3.2 11.3 0.00 0.00 0.00 72 1009.2
20260506203552 28 63 3.2 11.3 0.00 0.00 0.00 71 1009.2
20260506203056 29 95 3.2 11.3 0.00 0.00 0.00 69 1009.2
20260506202553 29 59 0.0 4.8 0.00 0.00 0.00 71 1009.2
20260506202053 28 0 0.0 4.8 0.00 0.00 0.00 71 1009.4
20260506201622 28 0 0.0 8.0 0.00 0.00 0.00 72 1009.3
20260506201052 27 55 1.6 8.0 0.00 0.00 0.00 71 1009.6
20260506200552 27 0 0.0 6.4 0.00 0.00 0.00 72 1009.6
20260506200055 28 0 1.6 8.0 0.00 0.00 0.00 72 1009.7
20260506195553 28 88 1.6 8.0 0.00 0.00 0.00 73 1009.7
20260506195054 28 79 1.6 8.0 0.00 0.00 0.00 73 1009.6
20260506194557 28 68 3.2 12.9 0.00 0.00 0.00 71 1009.6
20260506194053 29 80 4.8 12.9 0.00 0.00 0.00 69 1009.4
20260506193551 30 0 0.0 6.4 0.00 0.00 0.00 70 1009.4
20260506193056 28 123 1.6 11.3 0.00 0.00 0.00 72 1009.5
20260506192552 28 145 1.6 11.3 0.00 0.00 0.00 71 1009.6
20260506192052 28 0 1.6 11.3 0.00 0.00 0.00 73 1009.7
20260506191553 28 120 3.2 11.3 0.00 0.00 0.00 73 1009.8
20260506191053 28 123 1.6 11.3 0.00 0.00 0.00 73 1009.8
20260506190555 28 103 1.6 6.4 0.00 0.00 0.00 72 1009.9
20260506185552 28 161 1.6 16.1 0.00 0.00 0.00 72 1009.9
20260506185052 28 159 4.8 16.1 0.00 0.00 0.00 73 1010.0
20260506184601 28 120 1.6 6.4 0.00 0.00 0.00 76 1010.0
20260506184049 27 111 1.6 12.9 0.00 0.00 0.00 75 1010.2
20260506183549 27 110 1.6 12.9 0.00 0.00 0.00 75 1010.2
20260506183054 27 139 1.6 11.3 0.00 0.00 0.00 75 1010.3
20260506182556 27 145 1.6 11.3 0.00 0.00 0.00 75 1010.4
20260506182053 27 148 3.2 11.3 0.00 0.00 0.00 77 1010.4
20260506181553 27 126 1.6 8.0 0.00 0.00 0.00 77 1010.3
20260506181052 27 0 1.6 6.4 0.00 0.00 0.00 79 1010.4
20260506180553 26 87 1.6 12.9 0.00 0.00 0.00 83 1010.6
20260506180055 26 0 1.6 12.9 0.00 0.00 0.00 83 1010.5
20260506175550 26 71 3.2 12.9 0.00 0.00 0.00 84 1010.6
20260506175051 25 54 0.0 11.3 0.00 0.00 0.00 85 1010.6
20260506174552 25 57 3.2 11.3 0.00 0.00 0.00 85 1010.8
20260506174049 25 24 3.2 8.0 0.00 0.00 0.00 85 1010.8
20260506173549 25 51 1.6 8.0 0.00 0.00 0.00 86 1010.8
20260506173112 25 0 0.0 4.8 0.00 0.00 0.00 87 1010.8
20260506172549 24 69 0.0 8.0 0.00 0.00 0.00 88 1010.8
20260506172050 24 0 0.0 8.0 0.00 0.00 0.00 88 1010.8
20260506171556 24 68 0.0 8.0 0.00 0.00 0.00 88 1010.9
20260506171049 24 0 0.0 6.4 0.00 0.00 0.00 88 1010.9
20260506170550 24 0 1.6 6.4 0.00 0.00 0.00 87 1010.9
20260506170056 24 53 0.0 6.4 0.00 0.00 0.00 87 1010.9
20260506165629 24 0 0.0 6.4 0.00 0.00 0.00 87 1010.9
20260506165053 25 0 0.0 6.4 0.00 0.00 0.00 86 1010.9
20260506164553 25 36 1.6 6.4 0.00 0.00 0.00 86 1010.9
20260506164049 25 82 1.6 8.0 0.00 0.00 0.00 87 1011.0
20260506163550 25 86 1.6 8.0 0.00 0.00 0.00 87 1010.9
20260506163102 24 0 1.6 6.4 0.00 0.00 0.00 87 1010.9
20260506162549 24 59 1.6 6.4 0.00 0.00 0.00 87 1010.8
20260506162049 24 0 1.6 6.4 0.00 0.00 0.00 88 1010.8
20260506161559 24 54 1.6 6.4 0.00 0.00 0.00 89 1010.8
20260506161049 24 67 1.6 8.0 0.00 0.00 0.00 89 1010.8
20260506160549 24 96 1.6 8.0 0.00 0.00 0.00 89 1010.7
20260506160052 24 68 0.0 4.8 0.00 0.00 0.00 91 1010.8
20260506155548 24 88 0.0 4.8 0.00 0.00 0.00 91 1010.7
20260506155049 23 0 0.0 6.4 0.00 0.00 0.00 92 1010.6
20260506154602 23 0 0.0 6.4 0.00 0.00 0.00 92 1010.5
20260506154053 23 0 0.0 3.2 0.00 0.00 0.00 93 1010.4
20260506153553 23 0 0.0 3.2 0.00 0.00 0.00 93 1010.3
20260506153053 23 0 0.0 1.6 0.00 0.00 0.00 93 1010.2
20260506152553 23 0 0.0 3.2 0.00 0.00 0.00 93 1010.2
20260506152057 23 0 0.0 4.8 0.00 0.00 0.00 93 1010.2
20260506151555 23 0 0.0 4.8 0.00 0.00 0.00 93 1010.1
20260506151049 23 0 0.0 4.8 0.00 0.00 0.00 93 1010.0
20260506150549 23 118 0.0 3.2 0.00 0.00 0.00 93 1010.0
20260506150053 23 0 0.0 3.2 0.00 0.00 0.00 93 1009.8
20260506145551 23 0 0.0 3.2 0.00 0.00 0.00 92 1009.8
20260506145048 23 0 0.0 3.2 0.00 0.00 0.00 92 1009.9
20260506144554 23 0 0.0 3.2 0.00 0.00 0.00 92 1009.9
20260506144049 23 0 0.0 3.2 0.00 0.00 0.00 91 1009.9
20260506143550 23 0 0.0 3.2 0.00 0.00 0.00 91 1009.9
20260506143052 23 0 0.0 3.2 0.00 0.00 0.00 91 1009.8
20260506142549 23 119 0.0 3.2 0.00 0.00 0.00 91 1009.8
20260506142052 23 0 0.0 1.6 0.00 0.00 0.00 91 1009.6
20260506141556 23 0 0.0 1.6 0.00 0.00 0.00 91 1009.5
20260506141050 23 0 0.0 3.2 0.00 0.00 0.00 92 1009.4
20260506140549 23 0 0.0 4.8 0.00 0.00 0.00 92 1009.3
20260506140100 23 0 0.0 4.8 0.00 0.00 0.00 92 1009.4
20260506135550 23 119 1.6 4.8 0.00 0.00 0.00 92 1009.2
20260506135055 23 116 0.0 11.3 0.00 0.00 0.00 92 1009.0
20260506134553 22 115 0.0 11.3 0.00 0.00 0.00 92 1008.8
20260506134052 22 117 3.2 11.3 0.00 0.00 0.00 92 1008.8
20260506133554 22 0 3.2 11.3 0.00 0.00 0.00 92 1008.8
20260506133102 22 0 0.0 8.0 0.00 0.00 0.00 92 1008.6
20260506132553 22 150 1.6 8.0 0.00 0.00 0.00 92 1008.6
20260506132054 22 0 0.0 9.7 0.00 0.00 0.00 92 1008.7
20260506131559 22 157 0.0 9.7 0.00 0.00 0.00 92 1008.5
20260506131054 22 118 0.0 12.9 0.00 0.00 0.00 92 1008.4
20260506130554 22 118 1.6 12.9 0.00 0.00 0.00 92 1008.3
20260506130055 22 132 1.6 8.0 0.00 0.00 0.00 92 1008.3
20260506125555 22 109 1.6 8.0 0.00 0.00 0.00 92 1008.3
20260506125053 22 132 0.0 11.3 0.00 0.00 0.00 92 1008.2
20260506124554 22 132 1.6 11.3 0.00 0.00 0.00 92 1008.3
20260506124054 23 0 3.2 11.3 0.00 0.00 0.00 92 1008.2
20260506123554 23 136 0.0 8.0 0.00 0.00 0.00 92 1008.2
20260506123056 23 138 1.6 8.0 0.00 0.00 0.00 92 1008.3
20260506122554 23 0 0.0 4.8 0.00 0.00 0.00 92 1008.2
20260506122053 23 0 0.0 4.8 0.00 0.00 0.00 92 1008.3
20260506121600 23 182 0.0 4.8 0.00 0.00 0.00 91 1008.3
20260506121054 23 0 0.0 3.2 0.00 0.00 0.00 91 1008.3
20260506120554 23 0 0.0 4.8 0.00 0.00 0.00 91 1008.4
20260506120109 23 184 0.0 6.4 0.00 0.00 0.00 91 1008.2
20260506115553 23 185 1.6 6.4 0.00 0.00 0.00 91 1008.2
20260506115053 23 185 1.6 6.4 0.00 0.00 0.00 91 1008.2
20260506114610 23 190 1.6 6.4 0.00 0.00 0.00 91 1008.2
20260506114054 23 0 0.0 6.4 0.00 0.00 0.00 91 1008.1
20260506113554 23 0 1.6 8.0 0.00 0.00 0.00 91 1008.2
20260506113053 23 190 1.6 9.7 0.00 0.00 0.00 91 1008.1
20260506112557 23 184 3.2 9.7 0.00 0.00 0.00 91 1008.1
20260506112052 23 194 1.6 9.7 0.00 0.00 0.00 91 1008.0
20260506111555 23 156 1.6 8.0 0.00 0.00 0.00 91 1008.0
20260506111052 23 0 1.6 8.0 0.00 0.00 0.00 91 1008.0
20260506110553 23 154 0.0 12.9 0.00 0.00 0.00 91 1008.1
20260506110054 23 152 3.2 12.9 0.00 0.00 0.00 91 1008.1
20260506105556 23 184 1.6 8.0 0.00 0.00 0.00 91 1008.2
20260506105052 23 155 1.6 6.4 0.00 0.00 0.00 91 1008.0
20260506104558 23 0 1.6 8.0 0.00 0.00 0.00 91 1007.8
20260506104052 23 0 1.6 8.0 0.00 0.00 0.00 91 1007.9
20260506103553 23 171 0.0 8.0 0.00 0.00 0.00 91 1007.9
20260506103057 23 193 1.6 6.4 0.00 0.00 0.00 91 1007.9
20260506102555 23 194 1.6 11.3 0.00 0.00 0.00 91 1007.9
20260506102055 23 172 1.6 11.3 0.00 0.00 0.00 90 1007.9
20260506101557 23 155 1.6 9.7 0.00 0.00 0.00 90 1008.0
20260506101054 23 161 3.2 9.7 0.00 0.00 0.00 90 1008.1
20260506100552 23 182 0.0 16.1 0.00 0.00 0.00 90 1008.0
20260506100053 23 215 3.2 16.1 0.00 0.00 0.00 90 1007.9
20260506095552 23 182 4.8 16.1 0.00 0.00 0.00 90 1007.9
20260506095052 23 191 4.8 14.5 0.00 0.00 0.00 90 1007.9
20260506094554 23 211 6.4 14.5 0.00 0.00 0.00 90 1007.9
20260506094053 23 176 4.8 19.3 0.00 0.00 0.00 90 1007.8
20260506093553 23 148 4.8 19.3 0.00 0.00 0.00 90 1007.9
20260506093108 23 176 3.2 17.7 0.00 0.00 0.00 90 1007.9
20260506092552 23 178 4.8 17.7 0.00 0.00 0.00 90 1007.9
20260506092052 23 177 4.8 17.7 0.00 0.00 0.00 90 1007.7
20260506091554 23 186 3.2 16.1 0.00 0.00 0.00 90 1007.7
20260506091053 23 188 4.8 16.1 0.00 0.00 0.00 90 1007.7
20260506090553 23 184 4.8 19.3 0.00 0.00 0.00 90 1007.7
20260506090056 23 132 6.4 19.3 0.00 0.00 0.00 90 1007.7
20260506085553 23 148 3.2 19.3 0.00 0.00 0.00 90 1007.7
20260506085053 23 0 6.4 19.3 0.00 0.00 0.00 90 1007.8
20260506084557 23 97 4.8 22.5 0.00 0.00 0.00 90 1007.9
20260506084054 23 176 6.4 22.5 0.00 0.00 0.00 90 1007.9
20260506083552 23 154 6.4 16.1 0.00 0.00 0.00 90 1007.8
20260506083054 23 173 4.8 19.3 0.00 0.00 0.00 91 1007.8
20260506082556 23 162 3.2 19.3 0.00 0.00 0.00 91 1007.8
20260506082052 23 205 3.2 11.3 0.00 0.00 0.00 91 1008.0
20260506081551 23 163 3.2 16.1 0.00 0.00 0.00 91 1007.9
20260506081052 23 161 3.2 16.1 0.00 0.00 0.00 91 1007.8
20260506080552 23 201 3.2 9.7 0.00 0.00 0.00 90 1007.9
20260506080107 23 165 1.6 11.3 0.00 0.00 0.00 90 1007.9
20260506073105 23 138 1.6 12.9 0.00 0.00 0.00 90 1008.2
20260506072554 23 208 3.2 14.5 0.00 0.00 0.00 90 1008.1
20260506072056 23 119 4.8 14.5 0.00 0.00 0.00 90 1008.3
20260506071554 23 161 3.2 9.7 0.00 0.00 0.00 90 1008.5
20260506071052 23 0 1.6 11.3 0.00 0.00 0.00 90 1008.4
20260506070552 23 196 3.2 11.3 0.00 0.00 0.00 90 1008.3
20260506062053 23 165 3.2 12.9 0.00 0.00 0.00 90 1008.4
20260506061602 23 153 3.2 9.7 0.00 0.00 0.00 90 1008.5
20260506061052 23 165 1.6 11.3 0.00 0.00 0.00 90 1008.5
20260506060553 23 146 1.6 14.5 0.00 0.00 0.00 89 1008.6
20260506051053 23 215 3.2 12.9 0.00 0.00 0.00 89 1008.5
20260506050554 23 0 1.6 14.5 0.00 0.00 0.00 88 1008.3
20260506045054 24 178 4.8 17.7 0.00 0.00 0.00 88 1008.2
20260506044604 24 100 4.8 17.7 0.00 0.00 0.00 88 1008.1
20260506044053 24 135 1.6 16.1 0.00 0.00 0.00 88 1008.2
20260506043556 24 149 3.2 16.1 0.00 0.00 0.00 88 1008.3
20260506043053 24 194 4.8 12.9 0.00 0.00 0.00 88 1008.4
20260506042553 24 229 3.2 12.9 0.00 0.00 0.00 88 1008.3
20260506042054 24 87 1.6 14.5 0.00 0.00 0.00 88 1008.3
20260506041606 24 154 3.2 14.5 0.00 0.00 0.00 88 1008.2
20260506041056 24 165 1.6 14.5 0.00 0.00 0.00 87 1008.2
20260506040553 24 134 0.0 11.3 0.00 0.00 0.00 87 1008.2
20260506040101 24 166 3.2 11.3 0.00 0.00 0.00 87 1008.0
20260506035553 24 194 1.6 12.9 0.00 0.00 0.00 87 1008.0
20260506035053 24 145 3.2 12.9 0.00 0.00 0.00 87 1008.1
20260506034606 24 0 4.8 12.9 0.00 0.00 0.00 87 1008.0
20260506034053 25 175 1.6 16.1 0.00 0.00 0.00 87 1007.9
20260506033553 25 197 4.8 16.1 0.00 0.00 0.00 86 1007.9
20260506033057 25 121 3.2 12.9 0.00 0.00 0.00 86 1007.7
20260506032554 25 140 3.2 12.9 0.00 0.00 0.00 86 1007.5
20260506032054 25 132 3.2 12.9 0.00 0.00 0.00 86 1007.5
20260506031559 25 117 3.2 12.9 0.00 0.00 0.00 86 1007.3
20260506031054 25 105 3.2 12.9 0.00 0.00 0.00 85 1007.3
20260506030553 25 123 3.2 12.9 0.00 0.00 0.00 85 1007.3
20260506030057 25 175 4.8 12.9 0.00 0.00 0.00 85 1007.3
20260506025554 25 128 3.2 17.7 0.00 0.00 0.00 85 1007.2
20260506025053 25 198 3.2 17.7 0.00 0.00 0.00 84 1007.1
20260506024600 25 152 3.2 14.5 0.00 0.00 0.00 84 1007.0
20260506024053 26 144 3.2 19.3 0.00 0.00 0.00 83 1006.8
20260506023554 26 133 1.6 19.3 0.00 0.00 0.00 83 1006.7
20260506023057 26 130 3.2 14.5 0.00 0.00 0.00 82 1006.7
20260506022554 26 152 3.2 14.5 0.00 0.00 0.00 82 1006.6
20260506022054 26 137 6.4 14.5 0.00 0.00 0.00 81 1006.5
20260506021554 26 125 4.8 12.9 0.00 0.00 0.00 81 1006.5
20260506021057 26 145 3.2 12.9 0.00 0.00 0.00 80 1006.5
20260506020553 26 134 1.6 14.5 0.00 0.00 0.00 79 1006.5
20260506020117 26 0 3.2 14.5 0.00 0.00 0.00 79 1006.5
20260506015554 26 119 1.6 6.4 0.00 0.00 0.00 79 1006.4
20260506015053 26 123 1.6 9.7 0.00 0.00 0.00 79 1006.4
20260506014554 26 0 0.0 9.7 0.00 0.00 0.00 79 1006.2
20260506014056 26 118 0.0 6.4 0.00 0.00 0.00 79 1006.2
20260506013553 26 0 0.0 4.8 0.00 0.00 0.00 78 1006.2
20260506013052 27 103 0.0 4.8 0.00 0.00 0.00 78 1006.0
20260506012553 27 94 0.0 6.4 0.00 0.00 0.00 78 1006.0
20260506012053 27 0 0.0 6.4 0.00 0.00 0.00 78 1006.0
20260506011552 27 0 1.6 6.4 0.00 0.00 0.00 77 1006.0
20260506011055 27 0 1.6 6.4 0.00 0.00 0.00 77 1005.9
20260506010553 27 132 0.0 6.4 0.00 0.00 0.00 77 1005.8
20260506010055 27 0 0.0 6.4 0.00 0.00 0.00 76 1005.8
20260506005554 27 96 0.0 6.4 0.00 0.00 0.00 76 1005.8
20260506005053 27 92 0.0 6.4 0.00 0.00 0.00 75 1005.7
20260506004551 28 93 1.6 6.4 0.00 0.00 0.00 74 1005.7
20260506004053 28 0 1.6 9.7 0.00 0.00 0.00 73 1005.7
20260506003553 28 111 1.6 9.7 0.00 0.00 0.00 73 1005.7
20260506003053 28 0 0.0 4.8 0.00 0.00 0.00 73 1005.7
20260506002553 28 144 0.0 4.8 0.00 0.00 0.00 73 1005.7
20260506002053 28 146 0.0 9.7 0.00 0.00 0.00 73 1005.6
20260506001603 28 0 0.0 9.7 0.00 0.00 0.00 72 1005.6
20260506001053 28 150 1.6 4.8 0.00 0.00 0.00 72 1005.6
20260506000559 28 0 1.6 6.4 0.00 0.00 0.00 72 1005.5
20260506000121 28 0 0.0 6.4 0.00 0.00 0.00 72 1005.6
20260505235552 28 123 1.6 6.4 0.00 0.00 0.00 72 1005.5
20260505235052 28 0 1.6 6.4 0.00 0.00 0.00 72 1005.5
20260505234552 28 113 3.2 6.4 0.00 0.00 0.00 71 1005.4
20260505234055 28 114 0.0 6.4 0.00 0.00 0.00 71 1005.4
20260505233553 28 114 3.2 11.3 0.00 0.00 0.00 72 1005.5
20260505233054 28 0 3.2 11.3 0.00 0.00 0.00 71 1005.4
20260505232551 28 84 3.2 11.3 0.00 0.00 0.00 71 1005.4
20260505232053 28 135 0.0 11.3 0.00 0.00 0.00 71 1005.4
20260505231557 28 134 1.6 11.3 0.00 0.00 0.00 70 1005.4
20260505231053 29 204 4.8 16.1 0.00 0.00 0.00 69 1005.3
20260505230553 29 205 4.8 16.1 0.00 0.00 0.00 68 1005.4
20260505230052 29 174 4.8 16.1 0.00 0.00 0.00 69 1005.4
20260505225554 29 159 4.8 16.1 0.00 0.00 0.00 68 1005.4
20260505225053 29 186 4.8 14.5 0.00 0.00 0.00 68 1005.4
20260505224552 30 125 1.6 14.5 0.00 0.00 0.00 68 1005.4
20260505224054 29 184 1.6 16.1 0.00 0.00 0.00 69 1005.4
20260505223554 29 203 6.4 16.1 0.00 0.00 0.00 69 1005.5
20260505223059 29 144 3.2 11.3 0.00 0.00 0.00 69 1005.4